Location: Newark
(42.8481°N, 0.4872°E)
Time: 08:11:47
(UTC+00:00)

SR - Pass Details

Date: 04 November 2020
Orbit: 579 x 876 km, 66.7° (Epoch: 29 November)

Event Time Altitude Azimuth Distance (km) Brightness Sun altitude
Rises 01:46:51 0° 251° (WSW) 2,793 - -51.7°
Reaches altitude 10° 01:49:34 10° 269° (W) 1,913 - -51.3°
Maximum altitude 01:52:41 19° 316° (NW) 1,433 - -50.9°
Drops below altitude 10° 01:55:55 10° 3° (N) 1,992 - -50.4°
Sets 01:58:50 0° 21° (NNE) 2,952 - -49.9°
